Weather History for Columbia Airport, CA

Change the Weather History Date:

Saturday, October 26, 2013

  Actual Average (KMOD) Record (KMOD)
Temperature  
Mean Temperature 62 °F -  
Max Temperature 80 °F 75 °F 87 °F (2003)
Min Temperature 44 °F 50 °F 34 °F (1939)
Degree Days  
Heating Degree Days 3 3  
Month to date heating degree days 38  
Since 1 July heating degree days 41  
Cooling Degree Days 0 1  
Month to date cooling degree days 81  
Year to date cooling degree days 1693  
Growing Degree Days 12 (Base 50)    
Moisture  
Dew Point 35 °F    
Average Humidity 48    
Maximum Humidity 76    
Minimum Humidity 16    
Precipitation  
Precipitation 0.00 in 0.03 in 1.10 in (1950)
Month to date precipitation 0.51  
Year to date precipitation 9.54  
Since 1 July precipitation 0.79  
Snow  
Snow 0.00 in - 0.00 in (2002)
Month to date snowfall  
Since 1 July snowfall  
Since 1 September snowfall  
Snow Depth -    
Sea Level Pressure  
Sea Level Pressure 30.12 in    
Wind  
Wind Speed 1 mph (WSW)    
Max Wind Speed 7 mph    
Max Gust Speed -    
Visibility 10 miles    
Events      
T = Trace of Precipitation, MM = Missing Value Source: NWS Daily Summary

Daily Weather History Graph

Daily Weather History Graph

Search for Another Location

Airport:

Trip Planner

Search our weather history database for the weather conditions in past years. The results will help you decide how hot, cold, wet, or windy it might be!

Date:

Astronomy

Oct. 26, 2013 Rise Set
Actual Time 7:21 AM PDT 6:09 PM PDT
Civil Twilight 6:54 AM PDT 6:36 PM PDT
Nautical Twilight 6:23 AM PDT 7:06 PM PDT
Astronomical Twilight 5:53 AM PDT 7:37 PM PDT
Moon No Moon Rise 1:39 PM PDT (10/26)
Length of Visible Light 11h 41m
Length of Day
10h 47m
Waning Gibbous, 52% of the Moon is Illuminated
Oct 26
Waning Gibbous
Oct 26
Last Quarter
Nov 3
New
Nov 9
First Quarter
Nov 17
Full

Hourly Weather History & Observations

Time (PDT) Temp. Dew Point Humidity Pressure Visibility Wind Dir Wind Speed Gust Speed Precip Events Conditions
12:15 AM 46.4 °F 37.4 °F 71% 30.15 in 10.0 mi Calm Calm - N/A   Clear
12:35 AM 46.4 °F 37.4 °F 71% 30.15 in 10.0 mi Calm Calm - N/A   Clear
12:55 AM 46.4 °F 37.4 °F 71% 30.15 in 10.0 mi Calm Calm - N/A   Clear
1:15 AM 46.4 °F 37.4 °F 71% 30.15 in 10.0 mi Calm Calm - N/A   Clear
1:35 AM 46.4 °F 37.4 °F 71% 30.15 in 10.0 mi Calm Calm - N/A   Clear
1:55 AM 46.4 °F 37.4 °F 71% 30.15 in 10.0 mi Calm Calm - N/A   Clear
2:15 AM 46.4 °F 37.4 °F 71% 30.16 in 10.0 mi Calm Calm - N/A   Clear
2:35 AM 46.4 °F 37.4 °F 71% 30.16 in 10.0 mi Calm Calm - N/A   Clear
2:55 AM 44.6 °F 37.4 °F 76% 30.16 in 10.0 mi Calm Calm - N/A   Clear
3:15 AM 44.6 °F 37.4 °F 76% 30.16 in 10.0 mi Calm Calm - N/A   Clear
3:35 AM 44.6 °F 37.4 °F 76% 30.16 in 10.0 mi Calm Calm - N/A   Clear
3:55 AM 44.6 °F 37.4 °F 76% 30.15 in 10.0 mi Calm Calm - N/A   Clear
4:15 AM 44.6 °F 37.4 °F 76% 30.15 in 10.0 mi Calm Calm - N/A   Clear
4:35 AM 44.6 °F 37.4 °F 76% 30.15 in 10.0 mi Calm Calm - N/A   Clear
4:55 AM 44.6 °F 37.4 °F 76% 30.15 in 10.0 mi Calm Calm - N/A   Clear
5:15 AM 44.6 °F 37.4 °F 76% 30.15 in 10.0 mi Calm Calm - N/A   Clear
5:35 AM 44.6 °F 37.4 °F 76% 30.15 in 10.0 mi Calm Calm - N/A   Clear
5:55 AM 44.6 °F 35.6 °F 71% 30.15 in 10.0 mi Calm Calm - N/A   Clear
6:15 AM 44.6 °F 35.6 °F 71% 30.15 in 10.0 mi Calm Calm - N/A   Clear
6:35 AM 44.6 °F 35.6 °F 71% 30.15 in 10.0 mi Calm Calm - N/A   Clear
6:55 AM 44.6 °F 35.6 °F 71% 30.15 in 10.0 mi Calm Calm - N/A   Clear
7:15 AM 44.6 °F 35.6 °F 71% 30.15 in 10.0 mi Calm Calm - N/A   Clear
7:35 AM 44.6 °F 35.6 °F 71% 30.15 in 10.0 mi Calm Calm - N/A   Clear
7:55 AM 44.6 °F 35.6 °F 71% 30.16 in 10.0 mi Calm Calm - N/A   Clear
8:15 AM 46.4 °F 35.6 °F 66% 30.16 in 10.0 mi Calm Calm - N/A   Clear
8:35 AM 50.0 °F 37.4 °F 62% 30.17 in 10.0 mi Calm Calm - N/A   Clear
8:55 AM 55.4 °F 39.2 °F 54% 30.17 in 10.0 mi Calm Calm - N/A   Clear
9:15 AM 59.0 °F 39.2 °F 48% 30.17 in 10.0 mi Calm Calm - N/A   Clear
9:35 AM 64.4 °F 39.2 °F 40% 30.17 in 10.0 mi Calm Calm - N/A   Clear
9:55 AM 68.0 °F 28.4 °F 23% 30.17 in 10.0 mi Calm Calm - N/A   Clear
10:15 AM 71.6 °F 32.0 °F 23% 30.17 in 10.0 mi Calm Calm - N/A   Clear
10:35 AM 71.6 °F 28.4 °F 20% 30.16 in 10.0 mi Calm Calm - N/A   Clear
10:55 AM 73.4 °F 28.4 °F 19% 30.16 in 10.0 mi Calm Calm - N/A   Clear
11:15 AM 75.2 °F 28.4 °F 18% 30.16 in 10.0 mi Calm Calm - N/A   Clear
11:35 AM 77.0 °F 26.6 °F 16% 30.16 in 10.0 mi Calm Calm - N/A   Clear
11:55 AM 77.0 °F 26.6 °F 16% 30.15 in 10.0 mi West 6.9 mph - N/A   Clear
12:15 PM 77.0 °F 28.4 °F 17% 30.15 in 10.0 mi West 5.8 mph - N/A   Clear
12:35 PM 78.8 °F 28.4 °F 16% 30.15 in 10.0 mi West 4.6 mph - N/A   Clear
12:55 PM 77.0 °F 30.2 °F 18% 30.14 in 10.0 mi SW 3.5 mph - N/A   Clear
1:15 PM 78.8 °F 32.0 °F 18% 30.13 in 10.0 mi West 5.8 mph - N/A   Clear
1:35 PM 78.8 °F 30.2 °F 17% 30.12 in 10.0 mi SSW 4.6 mph - N/A   Clear
1:55 PM 80.6 °F 32.0 °F 17% 30.11 in 10.0 mi WSW 3.5 mph - N/A   Clear
2:15 PM 78.8 °F 32.0 °F 18% 30.11 in 10.0 mi West 6.9 mph - N/A   Clear
2:35 PM 78.8 °F 35.6 °F 21% 30.10 in 10.0 mi West 6.9 mph - N/A   Clear
2:55 PM 77.0 °F 35.6 °F 22% 30.10 in 10.0 mi SSW 4.6 mph - N/A   Clear
3:15 PM 78.8 °F 35.6 °F 21% 30.10 in 10.0 mi WSW 5.8 mph - N/A   Clear
3:35 PM 77.0 °F 35.6 °F 22% 30.09 in 10.0 mi WSW 4.6 mph - N/A   Clear
3:55 PM 78.8 °F 33.8 °F 20% 30.09 in 10.0 mi Calm Calm - N/A   Clear
4:15 PM 77.0 °F 35.6 °F 22% 30.08 in 10.0 mi WSW 4.6 mph - N/A   Clear
4:35 PM 77.0 °F 35.6 °F 22% 30.07 in 10.0 mi WSW 3.5 mph - N/A   Clear
4:55 PM 77.0 °F 35.6 °F 22% 30.07 in 10.0 mi WSW 3.5 mph - N/A   Clear
5:15 PM 77.0 °F 35.6 °F 22% 30.07 in 10.0 mi Calm Calm - N/A   Clear
5:35 PM 73.4 °F 35.6 °F 25% 30.07 in 10.0 mi Calm Calm - N/A   Clear
5:55 PM 69.8 °F 33.8 °F 27% 30.07 in 10.0 mi Calm Calm - N/A   Clear
6:15 PM 66.2 °F 35.6 °F 32% 30.06 in 10.0 mi Calm Calm - N/A   Clear
6:35 PM 60.8 °F 35.6 °F 39% 30.06 in 10.0 mi Calm Calm - N/A   Clear
6:55 PM 59.0 °F 35.6 °F 42% 30.07 in 10.0 mi Calm Calm - N/A   Clear
7:15 PM 55.4 °F 35.6 °F 47% 30.07 in 10.0 mi Calm Calm - N/A   Clear
7:35 PM 55.4 °F 35.6 °F 47% 30.07 in 10.0 mi Calm Calm - N/A   Clear
7:55 PM 55.4 °F 35.6 °F 47% 30.07 in 10.0 mi Calm Calm - N/A   Clear
8:15 PM 51.8 °F 35.6 °F 54% 30.07 in 10.0 mi Calm Calm - N/A   Clear
8:35 PM 51.8 °F 35.6 °F 54% 30.07 in 10.0 mi Calm Calm - N/A   Clear
8:55 PM 50.0 °F 35.6 °F 58% 30.06 in 10.0 mi Calm Calm - N/A   Clear
9:15 PM 51.8 °F 35.6 °F 54% 30.07 in 10.0 mi Calm Calm - N/A   Clear
9:35 PM 50.0 °F 35.6 °F 58% 30.07 in 10.0 mi Calm Calm - N/A   Clear
9:55 PM 50.0 °F 35.6 °F 58% 30.07 in 10.0 mi Calm Calm - N/A   Clear
10:15 PM 50.0 °F 35.6 °F 58% 30.07 in 10.0 mi Calm Calm - N/A   Clear
10:35 PM 50.0 °F 35.6 °F 58% 30.06 in 10.0 mi Calm Calm - N/A   Clear
10:55 PM 50.0 °F 33.8 °F 54% 30.06 in 10.0 mi Calm Calm - N/A   Clear
11:15 PM 48.2 °F 33.8 °F 58% 30.07 in 10.0 mi Calm Calm - N/A   Clear
11:35 PM 48.2 °F 32.0 °F 54% 30.06 in 10.0 mi Calm Calm - N/A   Clear
11:55 PM 48.2 °F 32.0 °F 54% 30.06 in 10.0 mi Calm Calm - N/A   Clear